Meteo Giornale » Osservazioni meteo Italia » Bologna-Borgo Panigale

ore: 19:50 - Osservazioni Meteo Bologna-Borgo Panigale
Lat. 44° 32' N Lon. 11° 18' E Alt. 36 metri s.l.m.

sereno Europe/Rome

32 °C

Sereno

Temp. 24 Ore

22 °C

34 °C

Nord

7.4 Km/h

Dew point 18 °C

Umidità 43 %

Visibilità  10 Km

Il sole sorge alle ore 05:58

Il sole tramonta alle ore 20:44

Data e Ora Cielo e Fenomeni T °C DP °C Um. % Pres. hPa Vis. km Vento km/h
Oggi h: 19:50 sereno Sereno 32 18 43 1008 10 N 7.4
Oggi h: 19:20 sereno Sereno 33 18 41 1008 10 N 9.3
Oggi h: 18:50 sereno Sereno 33 18 41 1008 10 N 9.3
Oggi h: 18:20 sereno Sereno 33 18 41 1008 10 N 11.1
Oggi h: 17:50 sereno Sereno 33 18 41 1009 10 N 11.1
Oggi h: 17:20 sereno Sereno 33 18 41 1009 10 NO 7.4
Oggi h: 16:50 sereno Sereno 34 18 38 1009 10 N 7.4
Oggi h: 16:20 sereno Sereno 33 17 38 1010 10 N 7.4
Oggi h: 15:50 sereno Sereno 33 18 41 1009 10 N 3.7
Oggi h: 15:20 sereno Sereno 32 18 43 1010 10 NO 11.1
Oggi h: 14:50 sereno Sereno 34 18 38 1011 10 O/NO 20.3
Oggi h: 14:20 sereno Sereno 32 17 40 1011 10 O/NO 18.5
Oggi h: 13:50 sereno Sereno 33 17 38 1011 10 NO 13
Oggi h: 13:20 sereno Sereno 33 16 36 1011 10 NO 13
Oggi h: 12:50 sereno Sereno 32 17 40 1011 10 N 11.1
Oggi h: 12:20 sereno Sereno 32 17 40 1011 10 N 11.1
Oggi h: 11:50 sereno Sereno 31 17 43 1012 10 N 7.4
Oggi h: 11:20 sereno Sereno 30 16 42 1012 10 N 3.7
Oggi h: 10:50 sereno Sereno 29 17 48 1012 10 N 3.7
Oggi h: 10:20 sereno Sereno 28 17 51 1012 10 N 5.5
Oggi h: 09:50 sereno Sereno 27 17 54 1012 10 O 7.4
Oggi h: 09:20 sereno Sereno 27 17 54 1012 10 O 7.4
Oggi h: 08:50 sereno Sereno 27 16 50 1012 10 N 5.5
Oggi h: 08:20 sereno Sereno 26 15 50 1012 10 S/SO 9.3
Oggi h: 07:50 sereno Sereno 24 14 53 1012 10 S/SO 9.3
Oggi h: 07:20 sereno Sereno 24 14 53 1012 10 S/SO 7.4
Oggi h: 06:50 sereno Sereno 23 14 56 1012 10 S 11.1
Oggi h: 06:20 sereno Sereno 23 14 56 1011 10 S/SO 11.1
Oggi h: 05:20 sereno Sereno 22 15 64 1012 10 S/SO 13
Oggi h: 04:50 sereno Sereno 23 15 60 1011 10 S/SO 9.3
Oggi h: 04:20 sereno Sereno 23 15 60 1012 10 S/SO 11.1
Oggi h: 03:50 sereno Sereno 23 15 60 1012 10 S/SO 13
Oggi h: 03:20 sereno Sereno 23 15 60 1012 10 S 9.3
Oggi h: 02:50 sereno Sereno 23 16 64 1012 10 S/SO 7.4
Oggi h: 02:20 sereno Sereno 24 17 64 1012 10 S/SO 9.3
Oggi h: 01:50 sereno Sereno 24 18 69 1012 10 S/SO 7.4
Oggi h: 01:20 sereno Sereno 24 18 69 1012 10 N 5.5
Oggi h: 00:50 sereno Sereno 24 18 69 1012 10 N 5.5
Oggi h: 00:20 sereno Sereno 25 18 65 1012 10 N 5.5
Ieri h: 23:50 sereno Sereno 25 19 69 1012 10 N 1.8
Ieri h: 23:20 sereno Sereno 25 18 65 1012 10 E 9.3
Ieri h: 22:50 sereno Sereno 26 18 61 1012 10 E 11.1
Ieri h: 22:20 sereno Sereno 27 18 57 1012 10 E 7.4
Ieri h: 21:50 sereno Sereno 28 18 54 1012 10 E 9.3
Ieri h: 21:20 sereno Sereno 28 18 54 1011 10 E 11.1
Ieri h: 20:50 sereno Sereno 29 17 48 1011 10 E 13